DLH646 UAAA-EDDF

Flight info

Callsign DLH646
Flight time N/A
Altitude 36000
Route EKLAT Z370 TOMGO M610 ARBOL Z621 GENDI N147 OTBOR/N0481F360 A480 TIMGA B476 UGLEP/N0481F380 B476 METKA L88 RASAM N199 EDATA M11 REBLO UR317 TBN UW71 CRM UL746 GIPDA/N0468F400 UL746 ODERO DCT OPT DCT TEGRI DCT GAZDA DCT ARSIN DCT SITNI DCT SUBEN DCT AKINI T161 DEBHI DEBHI1C
Aircraft A343/H-SDE2E3FGHIJ4J5M1RWXY/LB1D1

Departure

Time 2026-05-08 11:28
Airport Almaty International Airport (UAAA)

Arrival

Time N/A
Airport Frankfurt Main Airport (EDDF)
Time Latitude Longitude Altitude Speed Heading
2026-05-08 10:48 43.35035 77.01260 2260 ft 0 kts 246°
2026-05-08 11:19 43.35042 77.01282 2233 ft 4 kts 242°
2026-05-08 11:19 43.35056 77.01314 2231 ft 4 kts 234°
2026-05-08 11:20 43.35074 77.01342 2232 ft 4 kts 220°
2026-05-08 11:20 43.35095 77.01361 2233 ft 4 kts 187°
2026-05-08 11:20 43.35109 77.01360 2230 ft 0 kts 155°
2026-05-08 11:23 43.35106 77.01362 2233 ft 2 kts 155°
2026-05-08 11:23 43.35081 77.01377 2233 ft 8 kts 157°
2026-05-08 11:23 43.35014 77.01415 2233 ft 13 kts 158°
2026-05-08 11:24 43.34932 77.01466 2225 ft 13 kts 155°
2026-05-08 11:24 43.34852 77.01511 2230 ft 12 kts 169°
2026-05-08 11:24 43.34772 77.01477 2227 ft 14 kts 202°
2026-05-08 11:24 43.34683 77.01445 2230 ft 13 kts 181°
2026-05-08 11:25 43.34596 77.01464 2229 ft 14 kts 169°
2026-05-08 11:25 43.34501 77.01515 2227 ft 14 kts 156°
2026-05-08 11:25 43.34412 77.01570 2232 ft 14 kts 155°
2026-05-08 11:25 43.34326 77.01625 2224 ft 13 kts 155°
2026-05-08 11:26 43.34248 77.01676 2232 ft 12 kts 154°
2026-05-08 11:26 43.34173 77.01730 2227 ft 12 kts 147°
2026-05-08 11:26 43.34161 77.01816 2228 ft 10 kts 60°
2026-05-08 11:26 43.34206 77.01912 2228 ft 21 kts 57°
2026-05-08 11:27 43.34386 77.02276 2228 ft 70 kts 55°
2026-05-08 11:27 43.34751 77.03007 2226 ft 114 kts 56°
2026-05-08 11:27 43.35270 77.04042 2223 ft 149 kts 56°
2026-05-08 11:27 43.35907 77.05328 2337 ft 170 kts 54°
2026-05-08 11:28 43.36576 77.06647 2840 ft 166 kts 53°
2026-05-08 11:28 43.37238 77.07896 3343 ft 162 kts 52°
2026-05-08 11:28 43.38005 77.09032 3701 ft 167 kts 39°
2026-05-08 11:28 43.39147 77.09438 3823 ft 182 kts 347°
2026-05-08 11:29 43.40192 77.08437 4043 ft 197 kts 300°
2026-05-08 11:29 43.40770 77.06640 4418 ft 217 kts 294°
2026-05-08 11:29 43.41532 77.04740 4747 ft 237 kts 304°
2026-05-08 11:29 43.42579 77.02871 5045 ft 254 kts 310°
2026-05-08 11:30 43.43809 77.01051 5511 ft 265 kts 314°
2026-05-08 11:30 43.45136 76.99253 6103 ft 270 kts 315°
2026-05-08 11:30 43.46516 76.97460 6693 ft 275 kts 316°
2026-05-08 11:30 43.47928 76.95662 7327 ft 277 kts 316°
2026-05-08 11:31 43.49353 76.93867 8020 ft 278 kts 316°
2026-05-08 11:31 43.50790 76.92064 8726 ft 280 kts 317°
2026-05-08 11:31 43.52237 76.90254 9411 ft 282 kts 316°
2026-05-08 11:31 43.53622 76.88375 10116 ft 284 kts 309°
2026-05-08 11:32 43.54744 76.86069 10493 ft 298 kts 295°
2026-05-08 11:32 43.55360 76.83279 10767 ft 313 kts 277°
2026-05-08 11:32 43.55336 76.80210 11038 ft 328 kts 262°
2026-05-08 11:32 43.54930 76.77043 11304 ft 342 kts 259°
2026-05-08 11:33 43.54457 76.73765 11558 ft 356 kts 259°
2026-05-08 11:33 43.53972 76.70351 11830 ft 367 kts 259°
2026-05-08 11:33 43.53485 76.66864 12243 ft 373 kts 260°
2026-05-08 11:33 43.52995 76.63328 12726 ft 378 kts 260°
2026-05-08 11:34 43.52502 76.59753 13230 ft 381 kts 260°
2026-05-08 11:34 43.52005 76.56148 13747 ft 385 kts 260°
2026-05-08 11:34 43.51507 76.52541 14214 ft 388 kts 260°
2026-05-08 11:34 43.50999 76.48873 14705 ft 390 kts 260°
2026-05-08 11:35 43.50488 76.45184 15225 ft 393 kts 260°
2026-05-08 11:35 43.49973 76.41479 15734 ft 395 kts 260°
2026-05-08 11:35 43.49452 76.37739 16236 ft 398 kts 260°
2026-05-08 11:35 43.48926 76.33975 16743 ft 401 kts 260°
2026-05-08 11:36 43.48396 76.30191 17251 ft 404 kts 260°
2026-05-08 11:36 43.47859 76.26374 17751 ft 407 kts 260°
2026-05-08 11:36 43.47317 76.22532 18266 ft 410 kts 260°
2026-05-08 11:36 43.46777 76.18707 18720 ft 413 kts 260°
2026-05-08 11:37 43.46227 76.14819 19164 ft 415 kts 260°
2026-05-08 11:37 43.45672 76.10904 19654 ft 416 kts 260°
2026-05-08 11:37 43.45115 76.06986 20125 ft 418 kts 260°
2026-05-08 11:37 43.44555 76.03052 20572 ft 420 kts 260°
2026-05-08 11:38 43.43989 75.99088 21020 ft 423 kts 260°
2026-05-08 11:38 43.43418 75.95107 21462 ft 425 kts 260°
2026-05-08 11:38 43.42844 75.91107 21898 ft 427 kts 260°
2026-05-08 11:38 43.42265 75.87083 22330 ft 430 kts 259°
2026-05-08 11:39 43.41681 75.83040 22754 ft 432 kts 259°
2026-05-08 11:39 43.41093 75.78979 23171 ft 434 kts 259°
2026-05-08 11:39 43.40501 75.74897 23596 ft 436 kts 259°
2026-05-08 11:39 43.39911 75.70849 23933 ft 438 kts 259°
2026-05-08 11:40 43.39303 75.66678 24257 ft 441 kts 259°
2026-05-08 11:40 43.38704 75.62584 24579 ft 443 kts 259°
2026-05-08 11:40 43.38154 75.58408 24911 ft 445 kts 263°
2026-05-08 11:40 43.37985 75.54154 25214 ft 446 kts 272°
2026-05-08 11:41 43.38347 75.49909 25519 ft 448 kts 281°
2026-05-08 11:41 43.39006 75.45714 25854 ft 450 kts 283°
2026-05-08 11:41 43.39767 75.41528 26166 ft 452 kts 284°
2026-05-08 11:41 43.40570 75.37352 26529 ft 452 kts 284°
2026-05-08 11:42 43.41384 75.33169 26835 ft 454 kts 284°
2026-05-08 11:42 43.42193 75.28962 27120 ft 456 kts 284°
2026-05-08 11:42 43.42994 75.24734 27390 ft 458 kts 284°
2026-05-08 11:42 43.43789 75.20477 27680 ft 460 kts 284°
2026-05-08 11:43 43.44581 75.16200 27958 ft 461 kts 284°
2026-05-08 11:43 43.45359 75.11966 28226 ft 463 kts 283°
2026-05-08 11:43 43.46148 75.07650 28476 ft 465 kts 283°
2026-05-08 11:43 43.46936 75.03328 28831 ft 464 kts 283°
2026-05-08 11:44 43.47717 74.99037 29377 ft 460 kts 283°
2026-05-08 11:44 43.48491 74.94774 29778 ft 459 kts 283°
2026-05-08 11:44 43.49265 74.90508 30105 ft 458 kts 283°
2026-05-08 11:44 43.50036 74.86250 30406 ft 457 kts 283°
2026-05-08 11:45 43.50803 74.82002 30728 ft 456 kts 283°
2026-05-08 11:45 43.51567 74.77768 31031 ft 454 kts 283°
2026-05-08 11:45 43.52329 74.73549 31356 ft 453 kts 283°
2026-05-08 11:45 43.53083 74.69340 31675 ft 451 kts 283°
2026-05-08 11:46 43.53829 74.65152 31979 ft 450 kts 283°
2026-05-08 11:46 43.54573 74.60970 32286 ft 448 kts 283°
2026-05-08 11:46 43.55312 74.56806 32576 ft 447 kts 283°
2026-05-08 11:46 43.56040 74.52701 32851 ft 446 kts 283°
2026-05-08 11:47 43.56774 74.48553 33187 ft 443 kts 283°
2026-05-08 11:47 43.57502 74.44429 33499 ft 442 kts 283°
2026-05-08 11:47 43.58227 74.40318 33788 ft 440 kts 283°
2026-05-08 11:47 43.58949 74.36213 34050 ft 439 kts 282°
2026-05-08 11:48 43.59669 74.32109 34129 ft 442 kts 282°
2026-05-08 11:48 43.61116 74.23836 34413 ft 444 kts 282°
2026-05-08 11:48 43.61839 74.19702 34636 ft 442 kts 282°
2026-05-08 11:49 43.62561 74.15583 34844 ft 441 kts 282°
2026-05-08 11:49 43.63281 74.11464 35036 ft 441 kts 282°
2026-05-08 11:49 43.63997 74.07348 35221 ft 440 kts 282°
2026-05-08 11:49 43.64712 74.03234 35404 ft 440 kts 282°
2026-05-08 11:50 43.65422 73.99139 35594 ft 439 kts 282°
2026-05-08 11:50 43.66132 73.95035 35784 ft 438 kts 282°
2026-05-08 11:50 43.66839 73.90941 35923 ft 439 kts 282°
2026-05-08 11:51 43.67777 73.85491 35952 ft 442 kts 282°